Weather History for Patuxent River, MD

Change the Weather History Date:

Wednesday, February 13, 2013

  Actual Average Record
Temperature  
Mean Temperature 41 °F -  
Max Temperature 45 °F 39 °F 36 °F (2014)
Min Temperature 37 °F 26 °F 30 °F (2014)
Degree Days  
Heating Degree Days 24    
Moisture  
Dew Point 35 °F    
Average Humidity 78    
Maximum Humidity 93    
Minimum Humidity 65    
Precipitation  
Precipitation 0.07 in - - ()
Sea Level Pressure  
Sea Level Pressure 29.75 in    
Wind  
Wind Speed 7 mph (North)    
Max Wind Speed 13 mph    
Max Gust Speed -    
Visibility 7 miles    
Events Rain    
Averages and records for this station are not official NWS values.
T = Trace of Precipitation, MM = Missing Value Source: NWS Daily Summary

Daily Weather History Graph

Daily Weather History Graph

Search for Another Location

Airport:

Trip Planner

Search our weather history database for the weather conditions in past years. The results will help you decide how hot, cold, wet, or windy it might be!

Date:

Astronomy

Feb. 13, 2013 Rise Set
Actual Time 6:58 AM EST 5:42 PM EST
Civil Twilight 6:30 AM EST 6:09 PM EST
Nautical Twilight 5:59 AM EST 6:40 PM EST
Astronomical Twilight 5:29 AM EST 7:11 PM EST
Moon 8:30 AM EST (2/13) 9:38 PM EST (2/13)
Length of Visible Light 11h 38m
Length of Day
10h 43m
Waxing Crescent, 13% of the Moon is Illuminated
Feb 13
Waxing Crescent
Feb 17
First Quarter
Feb 25
Full
Mar 4
Last Quarter
Mar 11
New

Hourly Weather History & Observations

Time (EST) Temp. Windchill Dew Point Humidity Pressure Visibility Wind Dir Wind Speed Gust Speed Precip Events Conditions
12:52 AM 41.0 °F 39.0 °F 34.0 °F 76% 29.93 in 10.0 mi ESE 3.5 mph - N/A   Clear
1:52 AM 41.0 °F 35.8 °F 35.1 °F 79% 29.92 in 10.0 mi North 8.1 mph - N/A   Clear
2:52 AM 39.9 °F 35.1 °F 32.0 °F 73% 29.90 in 10.0 mi North 6.9 mph - N/A   Clear
3:52 AM 37.9 °F 32.7 °F 32.0 °F 79% 29.88 in 10.0 mi NNE 6.9 mph - N/A   Clear
4:52 AM 39.0 °F 34.0 °F 30.0 °F 70% 29.88 in 10.0 mi NE 6.9 mph - N/A   Clear
5:02 AM 39.2 °F 35.0 °F 30.2 °F 70% 29.89 in 10.0 mi NE 5.8 mph - N/A   Mostly Cloudy
5:52 AM 39.0 °F 34.0 °F 30.9 °F 73% 29.88 in 10.0 mi NE 6.9 mph - N/A   Mostly Cloudy
6:52 AM 37.9 °F 31.5 °F 30.0 °F 73% 29.86 in 10.0 mi NE 9.2 mph - N/A   Mostly Cloudy
7:52 AM 39.0 °F 32.3 °F 28.9 °F 67% 29.88 in 10.0 mi ENE 10.4 mph - N/A   Mostly Cloudy
8:52 AM 39.9 °F 35.1 °F 28.9 °F 65% 29.87 in 10.0 mi NE 6.9 mph - N/A   Mostly Cloudy
9:52 AM 41.0 °F 34.7 °F 30.0 °F 65% 29.85 in 10.0 mi East 10.4 mph - N/A   Mostly Cloudy
10:52 AM 42.1 °F 37.7 °F 32.0 °F 67% 29.85 in 10.0 mi East 6.9 mph - N/A   Overcast
11:52 AM 43.0 °F 39.5 °F 33.1 °F 68% 29.81 in 10.0 mi East 5.8 mph - N/A   Mostly Cloudy
12:52 PM 44.1 °F 41.5 °F 33.1 °F 65% 29.76 in 10.0 mi East 4.6 mph - N/A   Overcast
1:32 PM 44.6 °F 40.7 °F 35.6 °F 71% 29.71 in 9.0 mi ENE 6.9 mph - 0.00 in Rain Light Rain
1:52 PM 44.1 °F 40.8 °F 36.0 °F 73% 29.70 in 8.0 mi ENE 5.8 mph - 0.00 in Rain Light Rain
1:58 PM 44.6 °F 42.2 °F 35.6 °F 71% 29.70 in 10.0 mi East 4.6 mph - 0.00 in   Overcast
2:52 PM 45.0 °F 43.5 °F 37.0 °F 74% 29.67 in 10.0 mi North 3.5 mph - 0.00 in   Overcast
3:40 PM 44.6 °F 43.1 °F 37.4 °F 76% 29.65 in 7.0 mi North 3.5 mph - 0.00 in Rain Light Rain
3:52 PM 44.1 °F 40.8 °F 37.0 °F 76% 29.65 in 4.0 mi North 5.8 mph - 0.01 in Rain Light Rain
3:55 PM 44.6 °F 41.4 °F 37.4 °F 76% 29.65 in 3.0 mi NNW 5.8 mph - 0.00 in Rain Light Rain
4:03 PM 42.8 °F 39.3 °F 37.4 °F 81% 29.65 in 2.0 mi North 5.8 mph - 0.00 in Rain Light Rain
4:15 PM 42.8 °F 39.3 °F 39.2 °F 87% 29.64 in 1.5 mi NNW 5.8 mph - 0.01 in Rain Rain
4:32 PM 42.8 °F 39.3 °F 37.4 °F 81% 29.64 in 1.5 mi WNW 5.8 mph - 0.02 in Rain Rain
4:34 PM 42.8 °F 39.3 °F 37.4 °F 81% 29.64 in 0.8 mi WNW 5.8 mph - 0.02 in Rain Rain
4:52 PM 41.0 °F 37.1 °F 37.9 °F 89% 29.63 in 0.8 mi NW 5.8 mph - 0.02 in Rain Rain
4:57 PM 41.0 °F 36.4 °F 37.4 °F 87% 29.64 in 0.8 mi WNW 6.9 mph - 0.00 in Rain Rain
5:52 PM 39.9 °F 33.9 °F 37.9 °F 93% 29.65 in 0.8 mi NW 9.2 mph - 0.02 in Rain Light Rain
6:46 PM 41.0 °F 36.4 °F 37.4 °F 87% 29.64 in 2.0 mi NW 6.9 mph - 0.01 in Rain Light Rain
6:52 PM 41.0 °F 37.1 °F 37.9 °F 89% 29.65 in 2.0 mi NW 5.8 mph - 0.01 in Rain Light Rain
7:52 PM 39.9 °F 33.9 °F 37.0 °F 89% 29.66 in 2.0 mi NW 9.2 mph - 0.00 in Rain Light Rain
8:37 PM 39.2 °F 31.6 °F 37.4 °F 93% 29.66 in 4.0 mi NW 12.7 mph - 0.01 in Rain Light Rain
8:52 PM 39.9 °F 33.4 °F 37.0 °F 89% 29.67 in 4.0 mi NNW 10.4 mph - 0.01 in Rain Light Rain
9:52 PM 37.9 °F 30.0 °F 34.0 °F 86% 29.70 in 4.0 mi NNW 12.7 mph - 0.00 in Rain Light Rain
10:52 PM 37.9 °F 30.0 °F 34.0 °F 86% 29.73 in 8.0 mi NW 12.7 mph - 0.00 in   Overcast
11:52 PM 37.0 °F 29.3 °F 33.1 °F 86% 29.75 in 10.0 mi NW 11.5 mph - 0.00 in   Mostly Cloudy
11:59 PM 37.4 °F 30.3 °F 33.8 °F 87% 29.75 in 10.0 mi NNW 10.4 mph - N/A   Mostly Cloudy